Weather History for HTKA - May, 2014

Change the Weather History Date:

Thursday, May 1, 2014

  Actual Average Record
Temperature  
Mean Temperature 79 °F -  
Max Temperature 89 °F - - ()
Min Temperature 69 °F - - ()
Cooling Degree Days 14    
Growing Degree Days 29 (Base 50)    
Moisture  
Dew Point 66 °F    
Average Humidity 68    
Maximum Humidity 94    
Minimum Humidity 39    
Precipitation  
Precipitation 0.00 in - - ()
Sea Level Pressure  
Sea Level Pressure 30.04 in    
Wind  
Wind Speed 4 mph ()    
Max Wind Speed 17 mph    
Max Gust Speed -    
Visibility 8.8 miles    
Events      
T = Trace of Precipitation, MM = Missing Value Source: Averaged Metar Reports

Daily Weather History Graph

Daily Weather History Graph

Search for Another Location

Airport or City:

Trip Planner

Search our weather history database for the weather conditions in past years. The results will help you decide how hot, cold, wet, or windy it might be!

Date:

Astronomy

May. 01, 2014 Rise Set
Actual Time 7:00 AM EAT 6:56 PM EAT
Civil Twilight 6:38 AM EAT 7:18 PM EAT
Nautical Twilight 6:14 AM EAT 7:43 PM EAT
Astronomical Twilight 5:49 AM EAT 8:07 PM EAT
Moon 8:45 AM EAT (5/1) 8:56 PM EAT (5/1)
Length of Visible Light 12h 39m
Length of Day
11h 56m
Waxing Crescent, 5% of the Moon is Illuminated
May 1
Waxing Crescent
May 7
First Quarter
May 14
Full
May 21
Last Quarter
May 28
New

Hourly Weather History & Observations

Time (EAT) Temp. Heat Index Dew Point Humidity Pressure Visibility Wind Dir Wind Speed Gust Speed Precip Events Conditions
12:00 AM 73.4 °F - 68.0 °F 83% 30.04 in 6.2 mi Calm Calm - N/A   Mostly Cloudy
1:00 AM - - 68.0 °F N/A% 30.04 in 6.2 mi Calm Calm - N/A   Mostly Cloudy
2:00 AM 71.6 °F - 68.0 °F 88% 30.01 in 6.2 mi Calm Calm - N/A   Mostly Cloudy
3:00 AM 70 °F - 68 °F 90%  in 19 mi Calm Calm - -   Scattered Clouds
3:00 AM 69.8 °F - 68.0 °F 94% 30.01 in 6.2 mi Calm Calm - N/A   Mostly Cloudy
5:00 AM 69.8 °F - 68.0 °F 94% 30.01 in 6.2 mi Calm Calm - N/A   Mostly Cloudy
6:00 AM 69.8 °F - 66.2 °F 88% 30.01 in 6.2 mi Calm Calm - N/A   Mostly Cloudy
7:00 AM 68.0 °F - 66.2 °F 94% 30.04 in 6.2 mi Calm Calm - N/A   Mostly Cloudy
8:00 AM 69.8 °F - 66.2 °F 88% 30.06 in 6.2 mi Calm Calm - N/A   Mostly Cloudy
9:00 AM 77 °F - 66 °F 61%  in 19 mi East 11.5 mph - -   Scattered Clouds
9:00 AM 77.0 °F - 66.2 °F 69% 30.09 in 6.2 mi East 11.5 mph - N/A   Mostly Cloudy
10:00 AM 80.6 °F 81.8 °F 62.6 °F 54% 30.12 in 6.2 mi East 17.3 mph - N/A   Scattered Clouds
11:00 AM 82.4 °F 83.4 °F 62.6 °F 51% 30.12 in 6.2 mi East 17.3 mph - N/A   Mostly Cloudy
12:00 PM 85 °F - 64 °F 39%  in 19 mi East 11.5 mph - -   Scattered Clouds
12:00 PM 86.0 °F 87.3 °F 64.4 °F 48% 30.09 in 6.2 mi East 11.5 mph - N/A   Mostly Cloudy
1:00 PM 87.8 °F 88.5 °F 62.6 °F 43% 30.06 in 6.2 mi East 11.5 mph - N/A   Mostly Cloudy
2:00 PM 89.6 °F 91.1 °F 64.4 °F 43% 30.04 in 6.2 mi East 9.2 mph - N/A   Mostly Cloudy
3:00 PM 85 °F - 67 °F 44%  in 19 mi West 11.5 mph - -   Partly Cloudy
3:00 PM 84.2 °F 86.6 °F 66.2 °F 55% 30.01 in 6.2 mi West 11.5 mph - N/A   Partly Cloudy
4:00 PM 86.0 °F 88.2 °F 66.2 °F 51% 30.01 in 6.2 mi West 9.2 mph - N/A   Partly Cloudy
5:00 PM 84.2 °F 87.3 °F 68.0 °F 58% 29.98 in 6.2 mi WSW 6.9 mph - N/A   Mostly Cloudy
6:00 PM 85 °F - 66 °F 43%  in 19 mi West 9.2 mph - -   Scattered Clouds
6:00 PM 84.2 °F 86.6 °F 66.2 °F 55% 29.98 in 6.2 mi West 9.2 mph - N/A   Scattered Clouds
7:00 PM 80.6 °F 83.2 °F 68.0 °F 65% 30.01 in 6.2 mi Calm Calm - N/A   Scattered Clouds
8:00 PM 77.0 °F - 68.0 °F 74% 30.01 in 6.2 mi Calm Calm - N/A   Partly Cloudy
9:00 PM 75 °F - 69 °F 75%  in 19 mi Calm Calm - -   Scattered Clouds
9:00 PM 75.2 °F - 68.0 °F 78% 30.04 in 6.2 mi Calm Calm - N/A   Scattered Clouds
10:00 PM 73.4 °F - 68.0 °F 83% 30.04 in 6.2 mi Calm Calm - N/A   Scattered Clouds
11:00 PM 71.6 °F - 68.0 °F 88% 30.04 in 6.2 mi Calm Calm - N/A   Scattered Clouds